Terminal Aerodrome Forecast
Issued by NWS

Home | Current Version | Previous Version | Graphics & Text | Print | Product List | Glossary On
Versions: 1 2 3 4 5 6 7 8 9 10 11 12 13 14 15 16 17 18 19
000
FTUS42 KMHX 241150
TAFPGV
TAF
KPGV 241150Z 2412/2512 05004KT P6SM SCT030 OVC060
     FM241400 03007KT 4SM -SN OVC010
     FM241600 04005KT 2SM -SN BR OVC007
     FM242100 04005KT 2SM -SNPL BR OVC005
     FM250300 VRB03KT 3SM BR OVC005
     FM250600 VRB03KT P6SM SCT030
      AMD LTD TO CLD VIS AND WIND=

USA.gov is the U.S. government's official web portal to all federal, state and local government web resources and services.